Regional Weather Roundup
Issued by NWS

Home | Current Version | Previous Version | Text Only | Print | Product List | Glossary Off
Versions: 1 2 3 4 5 6 7 8 9 10 11 12 13 14 15 16 17 18 19 20 21 22 23 24 25 26 27 28 29 30 31 32 33 34 35 36 37 38 39 40 41 42 43 44 45 46 47 48 49 50

000
ASUS43 KIND 170700
RWRIN

WEATHER ROUNDUP FOR INDIANA
NATIONAL WEATHER SERVICE INDIANAPOLIS IN
300 AM EDT TUE OCT 17 2017

NOTE: "FAIR" INDICATES FEW OR NO CLOUDS BELOW 12,000 FEET WITH NO
SIGNIFICANT WEATHER AND/OR OBSTRUCTIONS TO VISIBILITY.

* - STATION DOES NOT REPORT WEATHER SUCH AS PRECIPITATION OR FOG.

+ - STATION NOT QUALITY CONTROLLED BY THE NATIONAL WEATHER SERVICE.
    USE DATA WITH CAUTION...ESPECIALLY DEWPOINT AND RELATIVE
    HUMIDITY OBSERVATIONS.

INZ001>003-010>013-019-020-170800-
NORTHWEST INDIANA

CITY           SKY/WX    TMP DP  RH WIND       PRES   REMARKS
MICHIGAN CITY+ CLEAR     45  37  76 S6        30.23S
MONTICELLO +   CLEAR     45  37  76 S5        30.26S
RENSSELAER +   CLEAR     43  34  70 S3        30.26R

$$

LMZ046-743>745-170800-
SOUTHERN LAKE MICHIGAN

STATION/POSITION TIME  TEMP    WIND        PRES    WAVE
                       AIR SEA DIR/SP/G            HT
                 (UTC) (F)     (DEG/KT/KT) (MB)    (FT)
BURNS HARBOR     0640   51     190/ 12/ 13 1023.7S
5NW MICH CITY    0640   54 57  210/ 14/ 17   N/A     2

$$

INZ004-005-014>016-021>024-170800-
NORTH CENTRAL INDIANA

CITY           SKY/WX    TMP DP  RH WIND       PRES   REMARKS
GOSHEN         CLEAR     44  36  73 SW7       30.25R
PERU/GRISSOM   CLEAR     43  38  81 SW7       30.27S
SOUTH BEND     CLEAR     43  39  86 SW8       30.24S

$$

INZ006>009-017-018-025>027-170800-
NORTHEAST INDIANA

CITY           SKY/WX    TMP DP  RH WIND       PRES   REMARKS
FORT WAYNE     CLEAR     42  36  79 SW6       30.27F
KENDALLVILLE + CLEAR     45  38  77 SW7       30.25S

$$

INZ028-029-035-036-043>045-051>053-170800-
WEST CENTRAL INDIANA

CITY           SKY/WX    TMP DP  RH WIND       PRES   REMARKS
LAFAYETTE      CLEAR     43  39  86 CALM      30.28S
TERRE HAUTE    CLEAR     41  38  89 CALM      30.31R

$$

INZ030>032-037>040-046>048-054>057-064-065-170800-
CENTRAL INDIANA

CITY           SKY/WX    TMP DP  RH WIND       PRES   REMARKS
INDIANAPOLIS   CLEAR     44  38  79 SW5       30.30S
-EAGLE CREEK   CLEAR     44  38  79 CALM      30.29S
KOKOMO +       CLEAR     46  38  73 S7        30.29R
MT COMFORT *+  CLEAR     41  41 100 S3        30.30R
SHELBYVILLE    CLEAR     42  38  85 S3        30.30S

$$

INZ033-034-041-042-049-050-058-059-170800-
EAST CENTRAL INDIANA

CITY           SKY/WX    TMP DP  RH WIND       PRES   REMARKS
MUNCIE         CLEAR     47  37  68 SW3       30.29S
RICHMOND +     CLEAR     39  36  87 SW5       30.31S

$$

INZ060-061-067>069-081>083-085>088-170800-
SOUTHWEST INDIANA

CITY           SKY/WX    TMP DP  RH WIND       PRES   REMARKS
EVANSVILLE     CLEAR     42  40  92 CALM      30.33S
HUNTINGBURG +  CLEAR     41  40  96 CALM      30.33S

$$

INZ062-063-066-070>080-084-089>092-170800-
SOUTH CENTRAL AND SOUTHEAST INDIANA

CITY           SKY/WX    TMP DP  RH WIND       PRES   REMARKS
BLOOMINGTON    CLEAR     40  36  86 CALM      30.31S
MADISON *+     CLEAR     41  37  87 CALM      30.34S
SEYMOUR +      CLEAR     39  37  93 CALM      30.33R

$$





USA.gov is the U.S. government's official web portal to all federal, state and local government web resources and services.